Location: Newark
(48.5156°N, 1.8989°W)
Time: 08:11:52
(UTC+00:00)

Courier 1B - Pass Details

Date: 26 November 2019
Orbit: 963 x 1209 km, 28.3° (Epoch: 11 December)

Event Time Altitude Azimuth Distance (km) Brightness Sun altitude
Exits shadow 03:48:40 12° 165° (SSE) 2,788 9.9 -36.2°
Drops below altitude 10° 03:50:48 10° 148° (SSE) 2,929 10.2 -35.8°
Sets 03:55:27 0° 120° (ESE) 3,823 11.3 -35.1°
